TimeEDT,TemperatureF,Dew PointF,Humidity,Sea Level PressureIn,VisibilityMPH,Wind Direction,Wind SpeedMPH,Gust SpeedMPH,PrecipitationIn,Events,Conditions,WindDirDegrees,DateUTC
12:51 AM,73.9,64.0,71,29.88,10.0,South,3.5,-,N/A,,Scattered Clouds,190,2013-06-18 04:51:00
1:51 AM,71.1,64.9,81,29.88,10.0,NE,5.8,-,N/A,,Scattered Clouds,50,2013-06-18 05:51:00
2:51 AM,68.0,62.1,81,29.88,10.0,ENE,6.9,-,N/A,,Scattered Clouds,60,2013-06-18 06:51:00
3:51 AM,66.9,62.1,84,29.87,10.0,NE,5.8,-,N/A,,Partly Cloudy,50,2013-06-18 07:51:00
4:51 AM,66.0,62.1,87,29.88,10.0,NE,6.9,-,N/A,,Scattered Clouds,50,2013-06-18 08:51:00
5:51 AM,66.0,62.1,87,29.89,10.0,ENE,6.9,-,N/A,,Mostly Cloudy,60,2013-06-18 09:51:00
6:51 AM,66.9,62.1,84,29.89,10.0,NE,4.6,-,N/A,,Mostly Cloudy,40,2013-06-18 10:51:00
7:51 AM,68.0,62.1,81,29.89,10.0,NE,4.6,-,N/A,,Mostly Cloudy,50,2013-06-18 11:51:00
8:51 AM,70.0,63.0,78,29.90,10.0,NE,6.9,-,N/A,,Mostly Cloudy,50,2013-06-18 12:51:00
9:51 AM,72.0,63.0,73,29.89,10.0,ENE,8.1,-,N/A,,Mostly Cloudy,60,2013-06-18 13:51:00
10:51 AM,73.9,63.0,68,29.87,10.0,NE,11.5,-,N/A,,Mostly Cloudy,40,2013-06-18 14:51:00
11:51 AM,75.0,64.0,69,29.87,10.0,NE,8.1,-,N/A,,Mostly Cloudy,50,2013-06-18 15:51:00
12:51 PM,79.0,64.9,62,29.85,10.0,NE,10.4,-,N/A,,Mostly Cloudy,50,2013-06-18 16:51:00
1:51 PM,80.1,64.0,58,29.83,10.0,SSE,11.5,-,N/A,,Overcast,160,2013-06-18 17:51:00
2:51 PM,78.1,64.0,62,29.83,10.0,SSE,5.8,-,N/A,,Overcast,150,2013-06-18 18:51:00
3:51 PM,75.9,63.0,64,29.83,10.0,South,11.5,-,0.00,Rain,Light Rain,170,2013-06-18 19:51:00
4:29 PM,73.4,66.2,78,29.83,6.0,South,12.7,-,0.02,Rain,Light Rain,190,2013-06-18 20:29:00
4:51 PM,72.0,66.9,84,29.84,7.0,SSE,8.1,-,0.02,Rain,Light Rain,160,2013-06-18 20:51:00
5:24 PM,71.6,64.4,78,29.84,7.0,Variable,3.5,-,0.02,Rain-Thunderstorm,Light Thunderstorms and Rain,0,2013-06-18 21:24:00
5:49 PM,71.6,64.4,78,29.86,6.0,WNW,10.4,-,0.03,Rain,Light Rain,290,2013-06-18 21:49:00
5:51 PM,70.0,64.0,81,29.86,6.0,West,9.2,-,0.03,Rain,Light Rain,280,2013-06-18 21:51:00
6:51 PM,72.0,55.9,57,29.86,7.0,ENE,4.6,-,0.12,Rain,Light Rain,60,2013-06-18 22:51:00
7:51 PM,71.1,60.1,68,29.82,10.0,SE,6.9,-,0.03,Rain,Light Rain,140,2013-06-18 23:51:00
8:51 PM,68.0,64.0,87,29.84,10.0,NE,13.8,18.4,0.00,,Overcast,40,2013-06-19 00:51:00
9:25 PM,66.2,62.6,88,29.85,10.0,NNE,10.4,-,0.00,Rain,Light Rain,20,2013-06-19 01:25:00
9:47 PM,66.2,62.6,88,29.86,10.0,NE,13.8,-,0.00,,Overcast,50,2013-06-19 01:47:00
9:51 PM,66.9,63.0,87,29.86,10.0,NE,13.8,-,0.00,,Overcast,50,2013-06-19 01:51:00
10:19 PM,66.2,62.6,88,29.87,10.0,ENE,15.0,-,N/A,,Mostly Cloudy,60,2013-06-19 02:19:00
10:36 PM,66.2,62.6,88,29.87,10.0,NE,11.5,-,N/A,,Mostly Cloudy,50,2013-06-19 02:36:00
10:51 PM,66.9,62.1,84,29.87,10.0,NE,11.5,-,N/A,,Mostly Cloudy,40,2013-06-19 02:51:00
11:51 PM,66.9,62.1,84,29.88,10.0,NNE,10.4,-,N/A,,Overcast,30,2013-06-19 03:51:00